Marshall, MN

7:33 PM CST on December 17, 2017 (GMT -0600)
Marshall Municipal-Ryan

Weather History for KMML - January, 2014

Change the Weather History Date:

Friday, January 10, 2014

  Actual Average Record
Temperature  
Mean Temperature 27 °F -  
Max Temperature 33 °F 17 °F 57 °F (2012)
Min Temperature 21 °F 0 °F -27 °F (1977)
Degree Days  
Heating Degree Days 38    
Moisture  
Dew Point 25 °F    
Average Humidity 83    
Maximum Humidity 93    
Minimum Humidity 74    
Precipitation  
Precipitation 0.00 in - - ()
Sea Level Pressure  
Sea Level Pressure 29.56 in    
Wind  
Wind Speed 20 mph (SW)    
Max Wind Speed 36 mph    
Max Gust Speed 45 mph    
Visibility 5 miles    
Events      
Averages and records for this station are not official NWS values.
T = Trace of Precipitation, MM = Missing Value Source: NWS Daily Summary

Daily Weather History Graph

Daily Weather History Graph

Search for Another Location

Airport or City:

Trip Planner

Search our weather history database for the weather conditions in past years. The results will help you decide how hot, cold, wet, or windy it might be!

Date:

Astronomy

Jan. 10, 2014 Rise Set
Actual Time 7:58 AM CST 5:03 PM CST
Civil Twilight 7:25 AM CST 5:36 PM CST
Nautical Twilight 6:49 AM CST 6:12 PM CST
Astronomical Twilight 6:14 AM CST 6:47 PM CST
Moon 1:11 PM CST (1/10) 3:03 AM CST (1/10)
Length of Visible Light 10h 10m
Length of Day
9h 05m
Waxing Gibbous, 75% of the Moon is Illuminated
Jan 10
Waxing Gibbous
Jan 15
Full
Jan 23
Last Quarter
Jan 30
New
Feb 6
First Quarter

Hourly Weather History & Observations

Time (CST) Temp. Windchill Dew Point Humidity Pressure Visibility Wind Dir Wind Speed Gust Speed Precip Events Conditions
12:15 AM 24.8 °F 7.1 °F 21.2 °F 86% 29.70 in 5.0 mi SSW 33.4 mph 42.6 mph N/A   Overcast
12:35 AM 26.6 °F 9.8 °F 19.4 °F 74% 29.70 in 5.0 mi SW 32.2 mph 42.6 mph N/A   Mostly Cloudy
12:55 AM 26.6 °F 10.6 °F 21.2 °F 80% 29.70 in 4.0 mi SSW 28.8 mph 40.3 mph N/A   Partly Cloudy
1:15 AM 26.6 °F 11.1 °F 21.2 °F 80% 29.70 in 4.0 mi SSW 26.5 mph 33.4 mph N/A   Mostly Cloudy
1:35 AM 26.6 °F 11.1 °F 21.2 °F 80% 29.69 in 4.0 mi SSW 26.5 mph 33.4 mph N/A   Overcast
2:15 AM 26.6 °F 11.4 °F 21.2 °F 80% 29.68 in 5.0 mi SW 25.3 mph 36.8 mph N/A   Overcast
2:35 AM 28.4 °F 13.3 °F 23.0 °F 80% 29.68 in 5.0 mi SSW 27.6 mph 36.8 mph N/A   Overcast
2:55 AM 28.4 °F 13.0 °F 24.8 °F 86% 29.67 in 5.0 mi SSW 28.8 mph 35.7 mph N/A   Overcast
3:15 AM 28.4 °F 12.3 °F 24.8 °F 86% 29.65 in 6.0 mi SSW 32.2 mph 40.3 mph N/A   Overcast
3:35 AM 28.4 °F 11.8 °F 24.8 °F 86% 29.64 in 6.0 mi SSW 34.5 mph 44.9 mph N/A   Overcast
3:55 AM 28.4 °F 12.7 °F 24.8 °F 86% 29.63 in 6.0 mi SSW 29.9 mph 39.1 mph N/A   Overcast
4:15 AM 30.2 °F 14.1 °F 24.8 °F 80% 29.62 in 6.0 mi SSW 35.7 mph 42.6 mph N/A   Overcast
4:35 AM 30.2 °F 15.4 °F 24.8 °F 80% 29.61 in 6.0 mi SSW 28.8 mph 40.3 mph N/A   Overcast
4:55 AM 30.2 °F 14.3 °F 24.8 °F 80% 29.60 in 7.0 mi SSW 34.5 mph 40.3 mph N/A   Overcast
5:15 AM 30.2 °F 15.4 °F 24.8 °F 80% 29.59 in 7.0 mi SW 28.8 mph 39.1 mph N/A   Overcast
5:35 AM 30.2 °F 16.2 °F 26.6 °F 86% 29.60 in 7.0 mi SSW 25.3 mph 36.8 mph N/A   Mostly Cloudy
5:55 AM 30.2 °F 20.2 °F 26.6 °F 86% 29.61 in 7.0 mi SE 12.7 mph 24.2 mph N/A   Overcast
6:15 AM 30.2 °F 19.8 °F 24.8 °F 80% 29.61 in 5.0 mi South 13.8 mph 19.6 mph N/A   Overcast
6:35 AM 28.4 °F 14.4 °F 26.6 °F 93% 29.60 in 4.0 mi SSW 23.0 mph 29.9 mph N/A   Overcast
6:55 AM 28.4 °F 17.0 °F 24.8 °F 86% 29.61 in 4.0 mi South 15.0 mph - N/A   Overcast
7:15 AM 28.4 °F 18.5 °F 24.8 °F 86% 29.61 in 4.0 mi SSE 11.5 mph 16.1 mph N/A   Overcast
7:35 AM 28.4 °F 19.1 °F 24.8 °F 86% 29.61 in 4.0 mi South 10.4 mph 18.4 mph N/A   Overcast
7:55 AM 28.4 °F 21.2 °F 26.6 °F 93% 29.61 in 3.0 mi South 6.9 mph 16.1 mph N/A   Overcast
8:15 AM 30.2 °F 20.8 °F 24.8 °F 80% 29.61 in 3.0 mi South 11.5 mph - N/A   Overcast
8:35 AM 30.2 °F 20.8 °F 26.6 °F 86% 29.60 in 3.0 mi South 11.5 mph - N/A   Overcast
8:55 AM 30.2 °F 21.3 °F 26.6 °F 86% 29.60 in 3.0 mi South 10.4 mph - N/A   Overcast
9:15 AM 30.2 °F 21.3 °F 26.6 °F 86% 29.60 in 3.0 mi South 10.4 mph - N/A   Overcast
9:35 AM 30.2 °F 20.8 °F 26.6 °F 86% 29.60 in 3.0 mi South 11.5 mph - N/A   Overcast
9:55 AM 30.2 °F 20.8 °F 26.6 °F 86% 29.61 in 3.0 mi SSW 11.5 mph - N/A   Overcast
10:15 AM 30.2 °F 21.3 °F 26.6 °F 86% 29.61 in 3.0 mi South 10.4 mph - N/A   Overcast
10:35 AM 30.2 °F 23.4 °F 28.4 °F 93% 29.62 in 3.0 mi South 6.9 mph - N/A   Overcast
10:55 AM 30.2 °F 20.2 °F 26.6 °F 86% 29.60 in 3.0 mi South 12.7 mph - N/A   Overcast
11:15 AM 30.2 °F 20.2 °F 26.6 °F 86% 29.60 in 3.0 mi SSW 12.7 mph - N/A   Overcast
11:35 AM 30.2 °F 18.1 °F 28.4 °F 93% 29.57 in 2.5 mi South 18.4 mph - N/A   Overcast
11:55 AM 30.2 °F 19.8 °F 28.4 °F 93% 29.56 in 3.0 mi South 13.8 mph - N/A   Overcast
12:15 PM 32.0 °F 23.0 °F 28.4 °F 87% 29.55 in 2.5 mi South 11.5 mph - N/A   Overcast
12:35 PM 32.0 °F 23.0 °F 28.4 °F 87% 29.54 in 3.0 mi SSW 11.5 mph - N/A   Overcast
12:55 PM 33.8 °F 25.3 °F 28.4 °F 81% 29.53 in 3.0 mi SW 11.5 mph - N/A   Overcast
1:15 PM 33.8 °F 27.0 °F 28.4 °F 81% 29.52 in 4.0 mi WSW 8.1 mph - N/A   Overcast
1:35 PM 33.8 °F 25.3 °F 28.4 °F 81% 29.51 in 4.0 mi SW 11.5 mph - N/A   Overcast
1:55 PM 33.8 °F 25.3 °F 28.4 °F 81% 29.51 in 5.0 mi WSW 11.5 mph - N/A   Overcast
2:15 PM 33.8 °F 25.3 °F 28.4 °F 81% 29.50 in 5.0 mi West 11.5 mph - N/A   Overcast
2:35 PM 33.8 °F 26.4 °F 28.4 °F 81% 29.50 in 4.0 mi WSW 9.2 mph - N/A   Overcast
2:55 PM 33.8 °F 26.4 °F 28.4 °F 81% 29.50 in 4.0 mi SW 9.2 mph - N/A   Overcast
3:15 PM 33.8 °F 27.7 °F 28.4 °F 81% 29.50 in 4.0 mi WSW 6.9 mph - N/A   Overcast
3:35 PM 33.8 °F 27.0 °F 30.2 °F 87% 29.50 in 4.0 mi SW 8.1 mph - N/A   Overcast
3:55 PM 33.8 °F 28.6 °F 30.2 °F 87% 29.51 in 4.0 mi SSW 5.8 mph - N/A   Overcast
4:15 PM 33.8 °F 27.7 °F 30.2 °F 87% 29.51 in 4.0 mi SW 6.9 mph - N/A   Overcast
4:35 PM 33.8 °F 28.6 °F 30.2 °F 87% 29.51 in 4.0 mi SW 5.8 mph - N/A   Mostly Cloudy
4:55 PM 33.8 °F 27.7 °F 30.2 °F 87% 29.51 in 5.0 mi WSW 6.9 mph - N/A   Mostly Cloudy
5:15 PM 33.8 °F 29.6 °F 28.4 °F 81% 29.51 in 5.0 mi SW 4.6 mph - N/A   Mostly Cloudy
5:35 PM 33.8 °F 29.6 °F 28.4 °F 81% 29.51 in 5.0 mi SW 4.6 mph - N/A   Mostly Cloudy
5:55 PM 32.0 °F 27.5 °F 28.4 °F 87% 29.50 in 5.0 mi SW 4.6 mph - N/A   Mostly Cloudy
6:15 PM 32.0 °F 27.5 °F 28.4 °F 87% 29.50 in 5.0 mi WSW 4.6 mph - N/A   Scattered Clouds
6:35 PM 30.2 °F 21.9 °F 26.6 °F 86% 29.50 in 5.0 mi West 9.2 mph - N/A   Mostly Cloudy
6:55 PM 28.4 °F 19.7 °F 24.8 °F 86% 29.50 in 5.0 mi West 9.2 mph - N/A   Partly Cloudy
7:15 PM 28.4 °F 19.7 °F 24.8 °F 86% 29.49 in 5.0 mi West 9.2 mph - N/A   Clear
7:35 PM 28.4 °F 19.7 °F 24.8 °F 86% 29.49 in 6.0 mi West 9.2 mph - N/A   Clear
7:55 PM 26.6 °F 18.2 °F 23.0 °F 86% 29.49 in 6.0 mi West 8.1 mph - N/A   Clear
8:15 PM 28.4 °F 19.1 °F 24.8 °F 86% 29.49 in 8.0 mi West 10.4 mph - N/A   Clear
8:35 PM 26.6 °F 17.5 °F 21.2 °F 80% 29.49 in 8.0 mi West 9.2 mph - N/A   Clear
8:55 PM 26.6 °F 15.7 °F 19.4 °F 74% 29.50 in 9.0 mi West 12.7 mph - N/A   Clear
9:15 PM 24.8 °F 12.9 °F 19.4 °F 80% 29.49 in 10.0 mi West 13.8 mph - N/A   Clear
9:35 PM 24.8 °F 13.4 °F 17.6 °F 74% 29.49 in 10.0 mi West 12.7 mph - N/A   Clear
9:55 PM 23.0 °F 11.7 °F 17.6 °F 80% 29.49 in 10.0 mi West 11.5 mph - N/A   Clear
10:15 PM 23.0 °F 12.4 °F 17.6 °F 80% 29.49 in 10.0 mi West 10.4 mph - N/A   Clear
10:35 PM 21.2 °F 10.1 °F 17.6 °F 86% 29.48 in 10.0 mi WNW 10.4 mph - N/A   Clear
10:55 PM 24.8 °F 13.4 °F 17.6 °F 74% 29.48 in 10.0 mi WNW 12.7 mph - N/A   Clear
11:15 PM 24.8 °F 14.0 °F 17.6 °F 74% 29.48 in 10.0 mi West 11.5 mph - N/A   Clear
11:35 PM 24.8 °F 12.9 °F 17.6 °F 74% 29.49 in 10.0 mi WNW 13.8 mph - N/A   Clear
11:55 PM 26.6 °F 15.7 °F 19.4 °F 74% 29.49 in 10.0 mi WNW 12.7 mph - N/A   Clear